Voltar ao catálogo

GLOBAL-31

AtivoComunicaçõesVLEO
NORAD 63027·PAYLOAD·🇺🇸 United States

Lançado Feb 18, 2025 de Rocket Lab Launch Complex 1

Loading…

Próximas Passagens (próximas 24 horas)

TLE

AtualizadoSource: Space-Track

Época: Sep 14, 2026, 11:02 UTC

1 63027U 25033B   26257.46009372  .00008389  00000-0  23011-3 0  9992
2 63027  58.9983 315.3167 0014982 107.9828 252.2882 15.38029862 88062

Acompanhe GLOBAL-31 em tempo real com AllMySat

Download on the App Store